Location: �mondeville
(49.4591°N, 1.3431°W)
Time: 03:25:19
(UTC+00:00)

Cosmos 2360 Rocket - Pass Details

Date: 22 October 2019
Orbit: 832 x 847 km, 71.0° (Epoch: 17 November)

Event Time Altitude Azimuth Distance (km) Brightness Sun altitude
Exits shadow 02:56:29 26° 12° (NNE) 1,597 3.9 -35.6°
Drops below altitude 10° 02:59:00 10° 23° (NNE) 2,470 5.1 -35.2°
Sets 03:01:31 0° 27° (NNE) 3,411 6.0 -34.9°
